#timestamp,LO_Frequency,Hit,StdDev 
1526443215.2,286046998.9,N
1526443235.1,286046999.6,N
1526443236.0,286046999.6,N
1526443255.8,286046997.3,Y
1526443275.7,286047001.2,P
1526443295.5,286047000.0,N
1526443315.3,286047002.1,P
1526443335.2,286047000.5,N
1526443355.9,286046998.5,N
1526443375.7,286046997.4,N
1526443395.6,286046998.0,N
1526443415.4,286046997.3,N
1526443435.3,286046996.6,N
1526443455.1,286046998.8,N
1526443456.0,286046998.8,N
1526443475.8,286046999.5,N
1526443495.7,286046999.3,N
1526443515.5,286046996.5,N
1526443535.3,286047000.4,N
1526443555.2,286047001.2,N
1526443575.0,286047000.8,N
1526443575.9,286047000.8,N
1526443595.8,286046998.8,N
1526443615.6,286047000.6,N
1526443635.4,286047000.9,N
1526443655.3,286047001.0,N
1526443675.1,286046998.6,N
1526443695.8,286046997.4,N
1526443715.7,286046998.5,N
1526443735.5,286046998.6,N
1526443755.4,286046997.6,N
1526443775.2,286046997.9,N
1526443795.0,286046997.0,N
1526443796.0,286046997.0,N
1526443815.8,286046996.6,N
1526443835.6,286046999.2,N
1526443855.5,286046998.4,N
1526443875.3,286046998.3,N
1526443895.1,286046996.7,N
1526443915.9,286046995.0,Y
1526443935.7,286046997.7,P
1526443955.6,286046999.1,N
1526443975.4,286046998.8,N
1526443995.2,286047000.9,N
1526444015.1,286047000.6,N
1526444016.0,286047000.6,N
1526444035.8,286047000.6,N
1526444055.6,286047000.8,N
1526444075.5,286046999.0,N
1526444095.3,286046997.7,N
1526444115.2,286046995.1,Y
1526444135.9,286046995.9,P
1526444155.7,286046993.7,P
1526444175.6,286046995.6,N
1526444195.4,286046996.4,N
1526444215.3,286046993.9,Y
1526444235.1,286046998.1,P
1526444236.0,286046998.1,N
1526444255.8,286047000.8,N
1526444275.7,286047000.0,N
1526444295.5,286047000.8,N
1526444315.4,286046996.5,N
1526444335.2,286046997.6,N
1526444355.0,286046995.0,N
1526444355.9,286046995.0,N
1526444375.8,286046997.3,N
1526444395.6,286046997.9,N
1526444415.4,286046997.3,N
1526444435.3,286046995.2,N
1526444455.1,286046996.1,N
1526444475.9,286046996.1,N
1526444495.7,286046995.6,N
1526444515.5,286046993.3,Y
1526444535.4,286046998.9,P
1526444555.2,286046998.7,N
1526444575.1,286046998.9,N
1526444576.0,286046998.9,N
1526444595.8,286046998.7,N
1526444615.6,286046999.6,N
1526444635.5,286046999.2,N
1526444655.3,286046996.5,Y
1526444675.1,286046998.6,P
1526444695.9,286046998.3,P
1526444715.7,286046998.3,P
1526444735.6,286047001.2,Y
1526444755.4,286047000.5,P
1526444775.2,286047000.5,N
1526444795.1,286047002.2,N
1526444796.0,286047002.2,N
1526444815.8,286047001.7,N
1526444835.6,286047002.2,N
1526444855.5,286047002.1,N
1526444875.3,286047003.5,N
1526444895.2,286047005.9,Y
1526444915.9,286047004.3,P
1526444935.7,286047005.6,P
1526444955.6,286047003.9,N
1526444975.4,286047002.0,N
1526444995.2,286047001.6,N
1526445015.1,286047002.3,N
1526445016.0,286047002.3,N
1526445035.8,286046999.7,N
1526445055.7,286047000.5,N
1526445075.5,286047002.7,N
1526445095.3,286047002.3,N
1526445115.2,286047001.9,N
1526445135.0,286047003.0,N
1526445135.9,286047003.0,N
1526445155.8,286047004.1,N
1526445175.6,286047001.4,N
1526445195.4,286047002.1,N
1526445215.3,286047003.9,N
1526445235.1,286047003.7,N
1526445255.8,286047001.5,N
1526445275.7,286047001.7,N
1526445295.5,286047001.7,N
1526445315.4,286047004.1,Y
1526445335.2,286046999.8,P
1526445355.0,286047001.6,N
1526445355.9,286047001.6,N
1526445375.8,286047000.5,N
1526445395.6,286047001.2,N
1526445415.4,286047001.0,N
1526445435.3,286047002.8,Y
1526445455.1,286047000.9,P
1526445475.9,286047000.4,N
1526445495.7,286046998.8,P
1526445515.5,286046998.2,N
1526445535.4,286047000.9,N
1526445555.2,286047000.8,N
1526445575.0,286047000.9,N
1526445576.0,286047000.9,N
1526445595.8,286047002.7,N
1526445615.6,286047002.3,N
1526445635.5,286047002.0,N
1526445655.3,286047002.6,N
1526445675.1,286046999.9,N
1526445695.9,286047000.4,N
1526445715.7,286047000.9,N
1526445735.6,286046998.3,N
1526445755.4,286047000.9,N
1526445775.2,286047001.1,N
1526445795.1,286046998.1,N
1526445796.0,286046998.1,N
1526445815.8,286046998.4,N
1526445835.6,286047001.2,N
1526445855.5,286047001.2,N
1526445875.3,286047000.0,N
1526445895.2,286047000.2,N
1526445915.9,286047000.3,N
1526445935.7,286047000.5,N
1526445955.6,286047001.0,N
1526445975.4,286046998.6,N
1526445995.2,286047001.2,N
1526446015.1,286046999.8,N
1526446016.0,286046999.8,N
1526446035.8,286047000.1,N
1526446055.7,286047002.4,N
1526446075.5,286047001.0,N
1526446095.3,286047000.5,N
1526446115.2,286047001.2,N
1526446135.0,286046998.3,N
1526446135.9,286046998.3,N
1526446155.7,286047001.1,N
1526446175.6,286046998.4,N
1526446195.4,286046998.2,N
1526446215.3,286047000.1,N
1526446235.1,286046998.2,N
1526446236.0,286046998.2,N
1526446255.8,286046998.2,N
1526446275.7,286047000.4,N
1526446295.5,286047000.1,N
1526446315.3,286047001.0,N
1526446335.2,286047000.2,N
1526446355.0,286047001.2,N
1526446355.9,286047001.2,N
1526446375.8,286047002.7,N
1526446395.6,286047001.8,N
1526446415.4,286047002.7,N
1526446435.3,286047001.6,N
1526446455.1,286047001.6,N
1526446475.9,286046999.7,N
1526446495.7,286047000.0,N
1526446515.5,286047000.3,N
1526446535.4,286047000.3,N
1526446555.2,286047000.1,N
1526446575.0,286047002.6,N
1526446575.9,286047002.6,N
1526446595.8,286047002.7,N
1526446615.6,286047002.7,N
1526446635.5,286046999.9,N
1526446655.3,286047002.0,N
1526446675.1,286047002.1,N
1526446695.9,286047001.5,N
1526446715.7,286047006.0,Y
1526446735.5,286047003.8,P
1526446755.4,286047003.0,N
1526446775.2,286047005.6,P
1526446795.1,286047003.8,N
1526446796.0,286047003.8,N
